Silver Peak Trail, Santa Catalina Island Weather observations

Data are for 10 minute period ending at time listed.
 Day   Time   Solar   Ave.   Ave.  Ave.  Vector    Max.   Stn.    Total
  of    of     Rad.   Air    Rel.  Wind   Wind     Wind   Baro.  Precip.
Year   Day            Temp.  Hum.  Speed  Dir.     Gust   Pres.         
2014   (PST)   W/m2    F      %     mph   deg.      mph    mb.     in.  
------------------------------------------------------------------------
 297    8:00  337.0    77   24.0     4    113.0     6.0    999.0   0.00  
 297    8:10  369.0    78   24.1     4    139.8     7.2    999.0   0.00  
 297    8:20  401.0    79   25.1     4    145.0     7.2    999.0   0.00  
 297    8:30  431.0    79   25.5     4    138.4     6.0    999.0   0.00  
 297    8:40  461.0    79   28.1     4    134.7     6.6    999.0   0.00  
 297    8:50  490.0    79   30.9     4    132.8     6.0    999.0   0.00  
 297    9:00  517.0    79   30.3     4    128.6     7.2    999.0   0.00  
 297    9:10  542.0    79   31.3     4    146.5     6.0    999.0   0.00  
 297    9:20  567.0    80   33.3     4    137.6     7.2    999.0   0.00  
 297    9:30  591.0    79   31.8     4    139.5     7.2    999.0   0.00  
 297    9:40  613.0    80   33.1     4    140.2     6.6    999.0   0.00  
 297    9:50  634.0    80   33.4     4    141.7     6.6    999.0   0.00  
 297   10:00  652.0    81   32.2     4    144.9     6.0    999.0   0.00  
 297   10:10  670.0    80   34.3     4    136.3     6.0    999.0   0.00  
 297   10:20  686.0    80   35.4     4    155.6     6.6    999.0   0.00  
 297   10:30  700.0    80   35.8     4    150.3     7.8    999.0   0.00  
 297   10:40  712.0    80   39.4     4    144.3     7.8    999.0   0.00  
 297   10:50  723.0    80   37.2     5    168.4     7.8    999.0   0.00  
 297   11:00  732.0    81   37.0     4    159.4     6.6    999.0   0.00  
 297   11:10  739.0    81   37.4     5    163.6     8.4    999.0   0.00  
 297   11:20  744.0    80   39.3     5    157.1     7.8    999.0   0.00  
 297   11:30  747.0    82   40.4     4    160.2     6.6    999.0   0.00  
 297   11:40  748.0    83   36.9     4    152.5     6.6    999.0   0.00  
 297   11:50  748.0    82   38.7     4    169.7     7.8    999.0   0.00  
 297   12:00  747.0    81   38.7     4    166.5     8.4    999.0   0.00  
 297   12:10  742.0    79   48.9     4    192.9     6.6    999.0   0.00  
 297   12:20  736.0    77   51.5     5    194.7     7.2    999.0   0.00  
 297   12:30  728.0    75   56.6     5    201.5     7.8    999.0   0.00  
 297   12:40  719.0    76   48.1     5    197.4     9.0    999.0   0.00  
 297   12:50  708.0    76   53.4     6    207.0     9.6    999.0   0.00  
 297   13:00  696.0    76   45.7     6    204.4     9.0    999.0   0.00  
 297   13:10  682.0    77   40.7     8    202.0    10.2    999.0   0.00  
 297   13:20  666.0    76   45.4     8    203.8    10.8    999.0   0.00  
 297   13:30  649.0    78   36.5     8    192.0    13.1    999.0   0.00  
 297   13:40  629.0    77   40.7     8    208.5    11.9    999.0   0.00  
 297   13:50  609.0    78   34.6     8    205.6    10.8    999.0   0.00  
 297   14:00  587.0    80   32.0     8    206.2    10.8    999.0   0.00  
 297   14:10  564.0    79   35.0     9    205.4    12.5    999.0   0.00  
 297   14:20  537.0    79   31.7     8    211.3    11.9    999.0   0.00  
 297   14:30  509.0    79   31.0     8    209.9    11.9    999.0   0.00  
 297   14:40  480.0    81   26.3     9    221.5    13.7    999.0   0.00  
 297   14:50  451.0    80   27.1     9    218.5    13.1    999.0   0.00  
 297   15:00  421.0    80   26.5     9    221.7    12.5    999.0   0.00  
 297   15:10  391.0    80   25.5     9    213.1    11.3    999.0   0.00  
 297   15:20  360.0    80   25.1     8    214.6    12.5    999.0   0.00  
 297   15:30  329.0    81   26.2     8    216.2    11.9    999.0   0.00  
 297   15:40  297.0    79   26.5     9    218.0    13.1    999.0   0.00  
 297   15:50  264.0    79   26.4     9    221.0    11.9    999.0   0.00  
 297   16:00  232.0    78   27.2     8    224.9    11.3    999.0   0.00  
 297   16:10  200.0    77   28.5     8    217.9    11.3    999.0   0.00  
 297   16:20  168.0    78   27.9     8    216.7    10.8    999.0   0.00  
 297   16:30  137.0    78   29.1     8    219.2    10.8    999.0   0.00  
 297   16:40  107.0    77   27.4     8    225.5    10.8    999.0   0.00  
 297   16:50   78.0    76   25.5     9    220.8    10.8    999.0   0.00  
 297   17:00   53.0    75   27.4     9    222.1    10.8    999.0   0.00  
 297   17:10   30.0    74   27.7     8    223.1    10.2    999.0   0.00  
 297   17:20    9.0    73   29.3     8    222.5    10.2    999.0   0.00  
 297   17:30    1.0    71   38.0     8    222.4     9.6    999.0   0.00  
 297   17:40    0.0    70   37.8     8    221.9     9.6    999.0   0.00  
 297   17:50    0.0    70   35.1     8    221.9     9.6    999.0   0.00  
 297   18:00    0.0    70   33.0     9    215.5    10.8    999.0   0.00  
 297   18:10    0.0    70   29.3    10    218.0    11.3    999.0   0.00  
 297   18:20    0.0    71   25.0     9    221.8    10.8    999.0   0.00  
 297   18:30    0.0    71   24.3     9    219.2    10.2    999.0   0.00  
 297   18:40    0.0    71   24.1     9    216.5    10.2    999.0   0.00  
 297   18:50    0.0    71   24.2     7    223.7     9.6    999.0   0.00  
 297   19:00    0.0    71   24.4     6    226.9     8.4    999.0   0.00  
 297   19:10    0.0    70   24.6     6    227.4     7.2    999.0   0.00  
 297   19:20    0.0    70   24.7     6    224.1     7.8    999.0   0.00  
 297   19:30    0.0    70   24.9     4    230.2     6.0    999.0   0.00  
 297   19:40    0.0    69   27.3     5    221.7     6.0    999.0   0.00  
 297   19:50    0.0    68   29.5     6    218.6     8.4    999.0   0.00  
 297   20:00    0.0    68   29.4     8    214.7     9.0    999.0   0.00  
 297   20:10    0.0    68   28.9     9    214.7    10.8    999.0   0.00  
 297   20:20    0.0    68   29.0    10    216.3    11.9    999.0   0.00  
 297   20:30    0.0    67   31.8    10    216.8    11.9    999.0   0.00  
 297   20:40    0.0    66   37.4    11    215.6    12.5    999.0   0.00  
 297   20:50    0.0    66   46.7    10    215.0    11.9    999.0   0.00  
 297   21:00    0.0    65   46.6     9    211.1    10.2    999.0   0.00  
 297   21:10    0.0    65   42.9     8    207.2    10.2    999.0   0.00  
 297   21:20    0.0    67   29.5     8    202.2     9.0    999.0   0.00  
 297   21:30    0.0    68   25.2     7    199.2     8.4    999.0   0.00  
 297   21:40    0.0    68   24.2     7    197.9     7.8    999.0   0.00  
 297   21:50    0.0    69   26.4     6    203.6     8.4    999.0   0.00  
 297   22:00    0.0    69   27.5     6    198.1     7.8    999.0   0.00  
 297   22:10    0.0    69   27.4     6    209.4     7.2    999.0   0.00  
 297   22:20    0.0    68   26.5     6    192.2     9.0    999.0   0.00  
 297   22:30    0.0    67   34.0     9    196.8    10.8    999.0   0.00  
 297   22:40    0.0    66   38.9    10    196.4    12.5    999.0   0.00  
 297   22:50    0.0    64   44.1    11    201.0    12.5    999.0   0.00  
 297   23:00    0.0    65   35.0    11    195.7    14.3    999.0   0.00  
 297   23:10    0.0    64   45.4    11    204.4    13.7    999.0   0.00  
 297   23:20    0.0    64   40.7    12    199.7    13.1    999.0   0.00  
 297   23:30    0.0    63   49.1    11    199.9    13.1    999.0   0.00  
 297   23:40    0.0    60   70.5    12    210.1    13.7    999.0   0.00  
 297   23:50    0.0    57   89.1    11    210.4    13.1    999.0   0.00  
 298    0:00    0.0    57   88.8    10    213.5    11.9    999.0   0.00  
 298    0:10    0.0    65   31.0     9    195.4    10.8    999.0   0.00  
 298    0:20    0.0    67   25.5     6    187.0     7.8    999.0   0.00  
 298    0:30    0.0    68   26.7     4    176.6     7.2    999.0   0.00  
 298    0:40    0.0    69   27.2     2    106.6     3.0    999.0   0.00  
 298    0:50    0.0    69   28.4     1     67.1     3.6    999.0   0.00  
 298    1:00    0.0    70   28.2     1    233.5     3.6    999.0   0.00  
 298    1:10    0.0    69   27.9     4     54.9     9.6    999.0   0.00  
 298    1:20    0.0    70   28.0     4     37.5     7.8    999.0   0.00  
 298    1:30    0.0    69   28.2     5     20.5     9.6    999.0   0.00  
 298    1:40    0.0    69   28.4     5     54.5     9.0    999.0   0.00  
 298    1:50    0.0    70   27.7     3    110.5     6.6    999.0   0.00  
 298    2:00    0.0    66   37.0     5    159.4     7.8    999.0   0.00  
 298    2:10    0.0    68   32.0     4    112.0     8.4    999.0   0.00  
 298    2:20    0.0    67   34.0     6    156.9     7.8    999.0   0.00  
 298    2:30    0.0    66   36.3     7    161.5     9.0    999.0   0.00  
 298    2:40    0.0    66   33.3     7    153.5     9.6    999.0   0.00  
 298    2:50    0.0    67   33.9     7    134.7    10.8    999.0   0.00  
 298    3:00    0.0    68   31.1     7    106.1     9.0    999.0   0.00  
 298    3:10    0.0    68   29.7     7    112.0    10.2    999.0   0.00  
 298    3:20    0.0    68   30.4     7    134.7     9.0    999.0   0.00  
 298    3:30    0.0    68   30.7     7     99.0     9.6    999.0   0.00  
 298    3:40    0.0    68   30.2     7     76.3    10.2    999.0   0.00  
 298    3:50    0.0    68   32.7     6    102.6     9.6    999.0   0.00  
 298    4:00    0.0    66   37.0     8     57.6    11.9    999.0   0.00  
 298    4:10    0.0    66   39.2     6     69.2     9.6    999.0   0.00  
 298    4:20    0.0    68   36.7     6    121.0     8.4    999.0   0.00  
 298    4:30    0.0    69   32.4     6    147.6     9.0    999.0   0.00  
 298    4:40    0.0    69   31.2     7    147.9    10.8    999.0   0.00  
 298    4:50    0.0    69   30.4     7    149.3     9.6    999.0   0.00  
 298    5:00    0.0    68   36.7     7    166.1    10.8    999.0   0.00  
 298    5:10    0.0    64   51.3     8    187.2    11.3    999.0   0.00  
 298    5:20    0.0    67   36.0     6    162.3    12.5    999.0   0.00  
 298    5:30    0.0    64   60.4     7    193.0    10.8    999.0   0.00  
 298    5:40    0.0    62   61.2     4    180.8     9.6    999.0   0.00  
 298    5:50    0.0    66   39.2     5    182.8     8.4    999.0   0.00  
 298    6:00    1.0    66   38.3     6    177.2     8.4    999.0   0.00  
 298    6:10    3.0    66   42.8     9    187.0    11.9    999.0   0.00  
 298    6:20    9.0    65   45.6    10    191.0    11.9    999.0   0.00  
 298    6:30   15.0    67   36.4    11    175.6    13.1    999.0   0.00  
 298    6:40   18.0    67   38.0    10    182.7    13.7    999.0   0.00  
 298    6:50   70.0    68   36.7     9    189.8    10.8    999.0   0.00  
 298    7:00  136.0    67   44.4    10    192.8    13.7    999.0   0.00  
 298    7:10  131.0    68   37.2     9    203.3    14.3    999.0   0.00  
 298    7:20  193.0    68   39.4     9    201.0    10.8    999.0   0.00  
 298    7:30  226.0    70   32.9     8    193.0    10.2    999.0   0.00  
 298    7:40  267.0    68   37.5     8    210.2    10.8    999.0   0.00  
 298    7:50  290.0    65   60.9    11    213.5    13.7    999.0   0.00  

Return to Silver Peak Trail graphs page.


Western Regional Climate Center,wrcc@dri.edu